| time (UTC) | temp C | wind direction | speed KPH | gust KPH | rain 1hr cm | rain 24hr cm | rain mn cm | humidity % | barometer mb |
| 20260507154125 | 16 | 236 | 3.2 | 3.2 | 0.00 | 0.00 | 0.00 | 90 | 1018.8 |
| 20260507153621 | 16 | 231 | 1.6 | 3.2 | 0.00 | 0.00 | 0.00 | 90 | 1018.7 |
| 20260507153117 | 15 | 163 | 0.0 | 0.0 | 0.00 | 0.00 | 0.00 | 90 | 1019.0 |
| 20260507152614 | 15 | 209 | 0.0 | 3.2 | 0.00 | 0.00 | 0.00 | 91 | 1019.0 |
| 20260507152110 | 15 | 243 | 3.2 | 3.2 | 0.00 | 0.00 | 0.00 | 91 | 1019.0 |
| 20260507151606 | 15 | 235 | 0.0 | 1.6 | 0.00 | 0.00 | 0.00 | 92 | 1018.8 |
| 20260507151103 | 15 | 221 | 0.0 | 1.6 | 0.00 | 0.00 | 0.00 | 92 | 1018.7 |
| 20260507150600 | 15 | 150 | 0.0 | 1.6 | 0.00 | 0.00 | 0.00 | 93 | 1018.8 |
| 20260507150057 | 14 | 146 | 0.0 | 0.0 | 0.00 | 0.00 | 0.00 | 93 | 1018.7 |
| 20260507145552 | 14 | 145 | 0.0 | 0.0 | 0.00 | 0.00 | 0.00 | 93 | 1018.8 |
| 20260507145050 | 14 | 125 | 0.0 | 0.0 | 0.00 | 0.00 | 0.00 | 94 | 1018.6 |
| 20260507144546 | 13 | 125 | 0.0 | 0.0 | 0.00 | 0.00 | 0.00 | 95 | 1018.7 |
| 20260507144045 | 13 | 118 | 0.0 | 0.0 | 0.00 | 0.00 | 0.00 | 96 | 1018.6 |
| 20260507143541 | 13 | 76 | 0.0 | 0.0 | 0.00 | 0.00 | 0.00 | 97 | 1018.6 |
| 20260507143039 | 13 | 76 | 0.0 | 0.0 | 0.00 | 0.00 | 0.00 | 97 | 1018.6 |
| 20260507142539 | 13 | 76 | 0.0 | 0.0 | 0.00 | 0.00 | 0.00 | 97 | 1018.5 |
| 20260507142036 | 12 | 76 | 0.0 | 0.0 | 0.00 | 0.00 | 0.00 | 98 | 1018.5 |
| 20260507141532 | 12 | 76 | 0.0 | 0.0 | 0.00 | 0.00 | 0.00 | 98 | 1018.5 |
| 20260507141029 | 12 | 76 | 0.0 | 0.0 | 0.00 | 0.00 | 0.00 | 98 | 1018.3 |
| 20260507140526 | 12 | 76 | 0.0 | 0.0 | 0.00 | 0.00 | 0.00 | 98 | 1018.3 |
| 20260507140024 | 12 | 76 | 0.0 | 0.0 | 0.00 | 0.00 | 0.00 | 98 | 1018.2 |
| 20260507135520 | 12 | 76 | 0.0 | 0.0 | 0.00 | 0.00 | 0.00 | 99 | 1018.2 |
| 20260507135018 | 12 | 76 | 0.0 | 0.0 | 0.00 | 0.00 | 0.00 | 99 | 1018.2 |
| 20260507134514 | 11 | 76 | 0.0 | 0.0 | 0.00 | 0.00 | 0.00 | 99 | 1018.1 |
| 20260507134010 | 11 | 76 | 0.0 | 0.0 | 0.00 | 0.00 | 0.00 | 99 | 1018.2 |
| 20260507133506 | 11 | 76 | 0.0 | 0.0 | 0.00 | 0.00 | 0.00 | 99 | 1018.0 |
| 20260507133004 | 11 | 76 | 0.0 | 0.0 | 0.00 | 0.00 | 0.00 | 99 | 1017.9 |
| 20260507132500 | 11 | 76 | 0.0 | 0.0 | 0.00 | 0.00 | 0.00 | 99 | 1017.8 |
| 20260507131956 | 11 | 76 | 0.0 | 0.0 | 0.00 | 0.00 | 0.00 | 99 | 1017.9 |
| 20260507131454 | 11 | 76 | 0.0 | 0.0 | 0.00 | 0.00 | 0.00 | 99 | 1017.8 |
| 20260507130951 | 11 | 76 | 0.0 | 0.0 | 0.00 | 0.00 | 0.00 | 99 | 1017.8 |
| 20260507130448 | 10 | 76 | 0.0 | 0.0 | 0.00 | 0.00 | 0.00 | 98 | 1017.8 |
| 20260507125946 | 10 | 76 | 0.0 | 0.0 | 0.00 | 0.00 | 0.00 | 98 | 1018.0 |
| 20260507125444 | 10 | 77 | 0.0 | 0.0 | 0.00 | 0.00 | 0.00 | 98 | 1017.8 |
| 20260507124941 | 10 | 76 | 0.0 | 0.0 | 0.00 | 0.00 | 0.00 | 98 | 1017.9 |
| 20260507124437 | 11 | 76 | 0.0 | 0.0 | 0.00 | 0.00 | 0.00 | 98 | 1017.9 |
| 20260507123936 | 11 | 76 | 0.0 | 0.0 | 0.00 | 0.00 | 0.00 | 98 | 1017.8 |
| 20260507123433 | 11 | 76 | 0.0 | 0.0 | 0.00 | 0.00 | 0.00 | 98 | 1017.8 |
| 20260507122929 | 11 | 76 | 0.0 | 0.0 | 0.00 | 0.00 | 0.00 | 98 | 1017.7 |
| 20260507122424 | 11 | 76 | 0.0 | 0.0 | 0.00 | 0.00 | 0.00 | 98 | 1017.9 |
| 20260507121921 | 11 | 76 | 0.0 | 0.0 | 0.00 | 0.00 | 0.00 | 98 | 1017.7 |
| 20260507121416 | 11 | 76 | 0.0 | 0.0 | 0.00 | 0.00 | 0.00 | 97 | 1017.7 |
| 20260507120913 | 11 | 76 | 0.0 | 0.0 | 0.00 | 0.00 | 0.00 | 97 | 1017.7 |
| 20260507120409 | 11 | 76 | 0.0 | 0.0 | 0.00 | 0.00 | 0.00 | 97 | 1017.8 |
| 20260507115906 | 11 | 76 | 0.0 | 0.0 | 0.00 | 0.00 | 0.00 | 97 | 1017.6 |
| 20260507115402 | 11 | 76 | 0.0 | 0.0 | 0.00 | 0.00 | 0.00 | 97 | 1017.7 |
| 20260507114857 | 11 | 76 | 0.0 | 0.0 | 0.00 | 0.00 | 0.00 | 97 | 1017.8 |
| 20260507114355 | 11 | 77 | 0.0 | 0.0 | 0.00 | 0.00 | 0.00 | 97 | 1017.8 |
| 20260507113852 | 11 | 77 | 0.0 | 0.0 | 0.00 | 0.00 | 0.00 | 97 | 1017.6 |
| 20260507113349 | 11 | 77 | 0.0 | 0.0 | 0.00 | 0.00 | 0.00 | 97 | 1017.8 |
| 20260507112846 | 11 | 77 | 0.0 | 0.0 | 0.00 | 0.00 | 0.00 | 97 | 1017.8 |
| 20260507112343 | 11 | 77 | 0.0 | 0.0 | 0.00 | 0.00 | 0.00 | 97 | 1018.0 |
| 20260507111841 | 11 | 76 | 0.0 | 0.0 | 0.00 | 0.00 | 0.00 | 97 | 1018.0 |
| 20260507111338 | 11 | 76 | 0.0 | 0.0 | 0.00 | 0.00 | 0.00 | 97 | 1018.1 |
| 20260507110834 | 11 | 83 | 0.0 | 0.0 | 0.00 | 0.00 | 0.00 | 97 | 1018.0 |
| 20260507110330 | 11 | 83 | 0.0 | 0.0 | 0.00 | 0.00 | 0.00 | 97 | 1018.3 |
| 20260507105827 | 11 | 83 | 0.0 | 0.0 | 0.00 | 0.00 | 0.00 | 97 | 1018.0 |
| 20260507105324 | 11 | 83 | 0.0 | 0.0 | 0.00 | 0.00 | 0.00 | 97 | 1018.2 |
| 20260507104821 | 11 | 83 | 0.0 | 0.0 | 0.00 | 0.00 | 0.00 | 97 | 1018.1 |
| 20260507104317 | 12 | 83 | 0.0 | 0.0 | 0.00 | 0.00 | 0.00 | 97 | 1018.2 |
| 20260507103813 | 11 | 83 | 0.0 | 0.0 | 0.00 | 0.00 | 0.00 | 97 | 1018.2 |
| 20260507103309 | 11 | 83 | 0.0 | 0.0 | 0.00 | 0.00 | 0.00 | 96 | 1018.0 |
| 20260507102806 | 11 | 83 | 0.0 | 0.0 | 0.00 | 0.00 | 0.00 | 96 | 1018.2 |
| 20260507102306 | 11 | 83 | 0.0 | 0.0 | 0.00 | 0.00 | 0.00 | 96 | 1018.1 |
| 20260507101759 | 11 | 83 | 0.0 | 0.0 | 0.00 | 0.00 | 0.00 | 96 | 1018.2 |
| 20260507101254 | 11 | 83 | 0.0 | 0.0 | 0.00 | 0.00 | 0.00 | 96 | 1018.2 |
| 20260507100751 | 11 | 82 | 0.0 | 0.0 | 0.00 | 0.00 | 0.00 | 96 | 1018.2 |
| 20260507100249 | 11 | 83 | 0.0 | 0.0 | 0.00 | 0.00 | 0.00 | 96 | 1018.2 |
| 20260507095747 | 12 | 82 | 0.0 | 0.0 | 0.00 | 0.00 | 0.00 | 96 | 1018.3 |
| 20260507095243 | 11 | 83 | 0.0 | 0.0 | 0.00 | 0.00 | 0.00 | 96 | 1018.2 |
| 20260507094740 | 11 | 83 | 0.0 | 0.0 | 0.00 | 0.00 | 0.00 | 96 | 1018.4 |
| 20260507094237 | 11 | 82 | 0.0 | 0.0 | 0.00 | 0.00 | 0.00 | 96 | 1018.3 |
| 20260507093734 | 12 | 82 | 0.0 | 0.0 | 0.00 | 0.00 | 0.00 | 96 | 1018.3 |
| 20260507093233 | 11 | 83 | 0.0 | 0.0 | 0.00 | 0.00 | 0.00 | 96 | 1018.3 |
| 20260507092730 | 11 | 83 | 0.0 | 0.0 | 0.00 | 0.00 | 0.00 | 96 | 1018.3 |
| 20260507092226 | 12 | 83 | 0.0 | 0.0 | 0.00 | 0.00 | 0.00 | 96 | 1018.5 |
| 20260507091723 | 11 | 83 | 0.0 | 0.0 | 0.00 | 0.00 | 0.00 | 96 | 1018.6 |
| 20260507091219 | 11 | 83 | 0.0 | 0.0 | 0.00 | 0.00 | 0.00 | 95 | 1018.7 |
| 20260507090720 | 12 | 83 | 0.0 | 0.0 | 0.00 | 0.00 | 0.00 | 95 | 1018.7 |
| 20260507090217 | 12 | 83 | 0.0 | 0.0 | 0.00 | 0.00 | 0.00 | 95 | 1018.8 |
| 20260507085714 | 11 | 83 | 0.0 | 0.0 | 0.00 | 0.00 | 0.00 | 95 | 1018.7 |
| 20260507085211 | 12 | 83 | 0.0 | 0.0 | 0.00 | 0.00 | 0.00 | 94 | 1019.0 |
| 20260507084708 | 12 | 83 | 0.0 | 0.0 | 0.00 | 0.00 | 0.00 | 94 | 1019.0 |
| 20260507084204 | 12 | 83 | 0.0 | 0.0 | 0.00 | 0.00 | 0.00 | 94 | 1019.2 |
| 20260507083701 | 12 | 83 | 0.0 | 0.0 | 0.00 | 0.00 | 0.00 | 94 | 1019.1 |
| 20260507083158 | 12 | 82 | 0.0 | 0.0 | 0.00 | 0.00 | 0.00 | 94 | 1019.1 |
| 20260507082654 | 12 | 82 | 0.0 | 0.0 | 0.00 | 0.00 | 0.00 | 94 | 1019.2 |
| 20260507082150 | 12 | 81 | 0.0 | 0.0 | 0.00 | 0.00 | 0.00 | 94 | 1019.2 |
| 20260507081647 | 12 | 83 | 0.0 | 0.0 | 0.00 | 0.00 | 0.00 | 94 | 1019.3 |
| 20260507081143 | 12 | 83 | 0.0 | 0.0 | 0.00 | 0.00 | 0.00 | 94 | 1019.4 |
| 20260507080640 | 12 | 83 | 0.0 | 0.0 | 0.00 | 0.00 | 0.00 | 94 | 1019.3 |
| 20260507080136 | 12 | 83 | 0.0 | 0.0 | 0.00 | 0.00 | 0.00 | 94 | 1019.6 |
| 20260507075631 | 12 | 83 | 0.0 | 0.0 | 0.00 | 0.00 | 0.00 | 94 | 1019.4 |
| 20260507075128 | 12 | 83 | 0.0 | 0.0 | 0.00 | 0.00 | 0.00 | 93 | 1019.3 |
| 20260507074624 | 12 | 83 | 0.0 | 0.0 | 0.00 | 0.00 | 0.00 | 93 | 1019.2 |
| 20260507074123 | 12 | 83 | 0.0 | 0.0 | 0.00 | 0.00 | 0.00 | 93 | 1019.2 |
| 20260507073619 | 12 | 83 | 0.0 | 0.0 | 0.00 | 0.00 | 0.00 | 93 | 1019.2 |
| 20260507073115 | 12 | 83 | 0.0 | 0.0 | 0.00 | 0.00 | 0.00 | 92 | 1019.2 |
| 20260507072613 | 12 | 83 | 0.0 | 0.0 | 0.00 | 0.00 | 0.00 | 91 | 1019.2 |
| 20260507072110 | 12 | 83 | 0.0 | 0.0 | 0.00 | 0.00 | 0.00 | 91 | 1019.3 |
| 20260507071607 | 13 | 83 | 0.0 | 0.0 | 0.00 | 0.00 | 0.00 | 91 | 1019.3 |
| 20260507071103 | 13 | 83 | 0.0 | 0.0 | 0.00 | 0.00 | 0.00 | 91 | 1019.2 |
| 20260507070601 | 13 | 83 | 0.0 | 0.0 | 0.00 | 0.00 | 0.00 | 90 | 1019.3 |
| 20260507070058 | 13 | 83 | 0.0 | 0.0 | 0.00 | 0.00 | 0.00 | 90 | 1019.3 |
| 20260507065554 | 13 | 83 | 0.0 | 0.0 | 0.00 | 0.00 | 0.00 | 90 | 1019.5 |
| 20260507065051 | 13 | 83 | 0.0 | 0.0 | 0.00 | 0.00 | 0.00 | 90 | 1019.2 |
| 20260507064549 | 13 | 83 | 0.0 | 0.0 | 0.00 | 0.00 | 0.00 | 91 | 1019.4 |
| 20260507064047 | 13 | 96 | 0.0 | 0.0 | 0.00 | 0.00 | 0.00 | 92 | 1019.6 |
| 20260507063544 | 12 | 96 | 0.0 | 0.0 | 0.00 | 0.00 | 0.00 | 92 | 1019.7 |
| 20260507063041 | 12 | 96 | 0.0 | 0.0 | 0.00 | 0.00 | 0.00 | 92 | 1019.6 |
| 20260507062538 | 12 | 96 | 0.0 | 0.0 | 0.00 | 0.00 | 0.00 | 91 | 1019.6 |
| 20260507062036 | 12 | 96 | 0.0 | 0.0 | 0.00 | 0.00 | 0.00 | 91 | 1019.3 |
| 20260507061533 | 12 | 96 | 0.0 | 0.0 | 0.00 | 0.00 | 0.00 | 91 | 1019.8 |
| 20260507061031 | 12 | 96 | 0.0 | 0.0 | 0.00 | 0.00 | 0.00 | 90 | 1019.5 |
| 20260507060529 | 13 | 96 | 0.0 | 0.0 | 0.00 | 0.00 | 0.00 | 90 | 1019.6 |
| 20260507060025 | 13 | 96 | 0.0 | 0.0 | 0.00 | 0.00 | 0.00 | 90 | 1019.7 |
| 20260507055520 | 13 | 96 | 0.0 | 0.0 | 0.00 | 0.00 | 0.00 | 89 | 1019.6 |
| 20260507055016 | 13 | 96 | 0.0 | 0.0 | 0.00 | 0.00 | 0.00 | 89 | 1019.7 |
| 20260507054512 | 13 | 96 | 0.0 | 0.0 | 0.00 | 0.00 | 0.00 | 89 | 1019.6 |
| 20260507054010 | 13 | 96 | 0.0 | 0.0 | 0.00 | 0.00 | 0.00 | 89 | 1019.6 |
| 20260507053508 | 13 | 96 | 0.0 | 0.0 | 0.00 | 0.00 | 0.00 | 89 | 1019.5 |
| 20260507053006 | 13 | 95 | 0.0 | 0.0 | 0.00 | 0.00 | 0.00 | 89 | 1019.5 |
| 20260507052503 | 13 | 96 | 0.0 | 0.0 | 0.00 | 0.00 | 0.00 | 88 | 1019.7 |
| 20260507051959 | 13 | 96 | 0.0 | 0.0 | 0.00 | 0.00 | 0.00 | 88 | 1019.5 |
| 20260507051458 | 13 | 96 | 0.0 | 0.0 | 0.00 | 0.00 | 0.00 | 88 | 1019.5 |
| 20260507050954 | 13 | 96 | 0.0 | 0.0 | 0.00 | 0.00 | 0.00 | 88 | 1019.5 |
| 20260507050450 | 13 | 96 | 0.0 | 0.0 | 0.00 | 0.00 | 0.00 | 88 | 1019.4 |
| 20260507045948 | 13 | 96 | 0.0 | 0.0 | 0.00 | 0.00 | 0.00 | 87 | 1019.4 |
| 20260507045444 | 13 | 96 | 0.0 | 0.0 | 0.00 | 0.00 | 0.00 | 86 | 1019.3 |
| 20260507044941 | 13 | 96 | 0.0 | 0.0 | 0.00 | 0.00 | 0.00 | 86 | 1019.4 |
| 20260507044438 | 13 | 95 | 0.0 | 0.0 | 0.00 | 0.00 | 0.00 | 86 | 1019.3 |
| 20260507043934 | 13 | 97 | 0.0 | 0.0 | 0.00 | 0.00 | 0.00 | 86 | 1019.5 |
| 20260507043430 | 13 | 98 | 0.0 | 0.0 | 0.00 | 0.00 | 0.00 | 85 | 1019.4 |
| 20260507042927 | 13 | 97 | 0.0 | 0.0 | 0.00 | 0.00 | 0.00 | 85 | 1019.5 |
| 20260507042424 | 14 | 97 | 0.0 | 0.0 | 0.00 | 0.00 | 0.00 | 83 | 1019.4 |
| 20260507041919 | 14 | 97 | 0.0 | 0.0 | 0.00 | 0.00 | 0.00 | 83 | 1019.4 |
| 20260507041416 | 14 | 98 | 0.0 | 0.0 | 0.00 | 0.00 | 0.00 | 83 | 1019.3 |
| 20260507040914 | 14 | 98 | 0.0 | 0.0 | 0.00 | 0.00 | 0.00 | 82 | 1019.3 |
| 20260507040409 | 15 | 136 | 0.0 | 0.0 | 0.00 | 0.00 | 0.00 | 82 | 1019.4 |
| 20260507035905 | 15 | 111 | 0.0 | 0.0 | 0.00 | 0.00 | 0.00 | 81 | 1019.4 |
| 20260507035402 | 15 | 110 | 0.0 | 0.0 | 0.00 | 0.00 | 0.00 | 81 | 1019.3 |
| 20260507034859 | 15 | 123 | 0.0 | 0.0 | 0.00 | 0.00 | 0.00 | 80 | 1019.0 |
| 20260507034355 | 15 | 247 | 0.0 | 1.6 | 0.00 | 0.00 | 0.00 | 81 | 1019.0 |
| 20260507033854 | 15 | 143 | 0.0 | 0.0 | 0.00 | 0.00 | 0.00 | 81 | 1019.1 |
| 20260507033351 | 15 | 172 | 0.0 | 1.6 | 0.00 | 0.00 | 0.00 | 81 | 1019.2 |
| 20260507032848 | 15 | 75 | 0.0 | 0.0 | 0.00 | 0.00 | 0.00 | 80 | 1019.2 |
| 20260507032345 | 15 | 89 | 0.0 | 1.6 | 0.00 | 0.00 | 0.00 | 80 | 1019.0 |
| 20260507031841 | 15 | 119 | 0.0 | 0.0 | 0.00 | 0.00 | 0.00 | 79 | 1019.1 |
| 20260507031338 | 15 | 116 | 0.0 | 0.0 | 0.00 | 0.00 | 0.00 | 79 | 1019.1 |
| 20260507030834 | 15 | 108 | 0.0 | 1.6 | 0.00 | 0.00 | 0.00 | 79 | 1019.1 |
| 20260507030332 | 15 | 63 | 0.0 | 1.6 | 0.00 | 0.00 | 0.00 | 79 | 1018.6 |
| 20260507025828 | 15 | 150 | 0.0 | 0.0 | 0.00 | 0.00 | 0.00 | 80 | 1018.7 |
| 20260507025326 | 16 | 127 | 0.0 | 0.0 | 0.00 | 0.00 | 0.00 | 80 | 1018.6 |
| 20260507024824 | 16 | 202 | 1.6 | 1.6 | 0.00 | 0.00 | 0.00 | 80 | 1018.5 |
| 20260507024321 | 16 | 214 | 0.0 | 1.6 | 0.00 | 0.00 | 0.00 | 80 | 1018.6 |
| 20260507023816 | 16 | 196 | 0.0 | 0.0 | 0.00 | 0.00 | 0.00 | 80 | 1018.7 |
| 20260507023313 | 16 | 186 | 3.2 | 3.2 | 0.00 | 0.00 | 0.00 | 79 | 1018.4 |
| 20260507022811 | 16 | 225 | 0.0 | 1.6 | 0.00 | 0.00 | 0.00 | 79 | 1018.5 |
| 20260507022307 | 16 | 11 | 0.0 | 1.6 | 0.00 | 0.00 | 0.00 | 79 | 1018.6 |
| 20260507021803 | 16 | 206 | 0.0 | 1.6 | 0.00 | 0.00 | 0.00 | 79 | 1018.6 |
| 20260507021259 | 17 | 103 | 1.6 | 3.2 | 0.00 | 0.00 | 0.00 | 78 | 1018.4 |
| 20260507020757 | 17 | 14 | 1.6 | 1.6 | 0.00 | 0.00 | 0.00 | 77 | 1018.4 |
| 20260507020253 | 17 | 228 | 3.2 | 3.2 | 0.00 | 0.00 | 0.00 | 76 | 1018.3 |
| 20260507015751 | 17 | 310 | 1.6 | 4.8 | 0.00 | 0.00 | 0.00 | 75 | 1018.3 |
| 20260507015248 | 17 | 285 | 1.6 | 3.2 | 0.00 | 0.00 | 0.00 | 74 | 1018.2 |
| 20260507014745 | 17 | 162 | 0.0 | 3.2 | 0.00 | 0.00 | 0.00 | 75 | 1018.2 |
| 20260507014241 | 18 | 79 | 1.6 | 6.4 | 0.00 | 0.00 | 0.00 | 75 | 1018.2 |
| 20260507013738 | 18 | 202 | 3.2 | 6.4 | 0.00 | 0.00 | 0.00 | 74 | 1018.2 |
| 20260507013235 | 18 | 224 | 3.2 | 4.8 | 0.00 | 0.00 | 0.00 | 73 | 1018.3 |
| 20260507012732 | 18 | 188 | 3.2 | 6.4 | 0.00 | 0.00 | 0.00 | 71 | 1018.2 |
| 20260507012228 | 19 | 186 | 1.6 | 9.7 | 0.00 | 0.00 | 0.00 | 70 | 1018.1 |
| 20260507011726 | 20 | 258 | 4.8 | 9.7 | 0.00 | 0.00 | 0.00 | 69 | 1018.1 |
| 20260507011222 | 20 | 234 | 3.2 | 4.8 | 0.00 | 0.00 | 0.00 | 67 | 1018.2 |
| 20260507010721 | 20 | 206 | 1.6 | 3.2 | 0.00 | 0.00 | 0.00 | 68 | 1018.1 |
| 20260507010218 | 20 | 189 | 1.6 | 9.7 | 0.00 | 0.00 | 0.00 | 68 | 1018.0 |
| 20260507005716 | 20 | 224 | 3.2 | 6.4 | 0.00 | 0.00 | 0.00 | 70 | 1018.1 |
| 20260507005211 | 20 | 178 | 1.6 | 11.3 | 0.00 | 0.00 | 0.00 | 70 | 1017.9 |
| 20260507004708 | 21 | 200 | 3.2 | 6.4 | 0.00 | 0.00 | 0.00 | 69 | 1017.9 |
| 20260507004206 | 21 | 188 | 0.0 | 4.8 | 0.00 | 0.00 | 0.00 | 70 | 1017.8 |
| 20260507003702 | 21 | 278 | 6.4 | 11.3 | 0.00 | 0.00 | 0.00 | 69 | 1018.1 |
| 20260507003157 | 20 | 148 | 3.2 | 6.4 | 0.00 | 0.00 | 0.00 | 70 | 1017.8 |
| 20260507002654 | 21 | 202 | 1.6 | 4.8 | 0.00 | 0.00 | 0.00 | 68 | 1017.8 |
| 20260507002149 | 21 | 334 | 1.6 | 12.9 | 0.00 | 0.00 | 0.00 | 69 | 1018.1 |
| 20260507001647 | 20 | 221 | 3.2 | 11.3 | 0.00 | 0.00 | 0.00 | 69 | 1018.0 |
| 20260507001144 | 21 | 293 | 6.4 | 9.7 | 0.00 | 0.00 | 0.00 | 68 | 1017.8 |
| 20260507000640 | 21 | 218 | 8.0 | 11.3 | 0.00 | 0.00 | 0.00 | 68 | 1017.8 |
| 20260507000136 | 21 | 229 | 3.2 | 12.9 | 0.00 | 0.00 | 0.00 | 70 | 1017.8 |
| 20260506235633 | 20 | 285 | 1.6 | 6.4 | 0.00 | 0.00 | 0.00 | 66 | 1017.9 |
| 20260506235133 | 22 | 271 | 8.0 | 14.5 | 0.00 | 0.00 | 0.00 | 63 | 1018.0 |
| 20260506234631 | 21 | 280 | 3.2 | 6.4 | 0.00 | 0.00 | 0.00 | 60 | 1018.0 |
| 20260506234128 | 21 | 174 | 4.8 | 12.9 | 0.00 | 0.00 | 0.00 | 61 | 1017.9 |
| 20260506233625 | 21 | 223 | 8.0 | 12.9 | 0.00 | 0.00 | 0.00 | 61 | 1017.7 |
| 20260506233122 | 21 | 248 | 9.7 | 14.5 | 0.00 | 0.00 | 0.00 | 61 | 1017.9 |
| 20260506232618 | 22 | 341 | 6.4 | 12.9 | 0.00 | 0.00 | 0.00 | 59 | 1017.8 |
| 20260506232114 | 23 | 329 | 3.2 | 6.4 | 0.00 | 0.00 | 0.00 | 55 | 1017.9 |
| 20260506231611 | 22 | 197 | 1.6 | 6.4 | 0.00 | 0.00 | 0.00 | 56 | 1017.8 |
| 20260506231109 | 22 | 303 | 3.2 | 12.9 | 0.00 | 0.00 | 0.00 | 58 | 1017.8 |
| 20260506230606 | 21 | 249 | 1.6 | 9.7 | 0.00 | 0.00 | 0.00 | 58 | 1017.9 |
| 20260506230103 | 22 | 247 | 4.8 | 11.3 | 0.00 | 0.00 | 0.00 | 55 | 1018.0 |
| 20260506225559 | 22 | 293 | 6.4 | 12.9 | 0.00 | 0.00 | 0.00 | 54 | 1018.1 |
| 20260506225055 | 23 | 83 | 1.6 | 9.7 | 0.00 | 0.00 | 0.00 | 50 | 1018.0 |
| 20260506224553 | 22 | 236 | 1.6 | 11.3 | 0.00 | 0.00 | 0.00 | 51 | 1018.1 |
| 20260506224049 | 22 | 201 | 1.6 | 3.2 | 0.00 | 0.00 | 0.00 | 49 | 1018.2 |
| 20260506223545 | 22 | 230 | 11.3 | 17.7 | 0.00 | 0.00 | 0.00 | 50 | 1018.4 |
| 20260506223042 | 23 | 209 | 3.2 | 6.4 | 0.00 | 0.00 | 0.00 | 48 | 1018.3 |
| 20260506222539 | 23 | 261 | 6.4 | 6.4 | 0.00 | 0.00 | 0.00 | 48 | 1018.5 |
| 20260506222035 | 23 | 62 | 1.6 | 4.8 | 0.00 | 0.00 | 0.00 | 49 | 1018.4 |
| 20260506221533 | 23 | 10 | 3.2 | 6.4 | 0.00 | 0.00 | 0.00 | 50 | 1018.6 |
| 20260506221030 | 24 | 162 | 1.6 | 3.2 | 0.00 | 0.00 | 0.00 | 50 | 1018.5 |
| 20260506220526 | 23 | 156 | 1.6 | 6.4 | 0.00 | 0.00 | 0.00 | 49 | 1018.7 |
| 20260506220021 | 22 | 253 | 4.8 | 6.4 | 0.00 | 0.00 | 0.00 | 58 | 1018.4 |
| 20260506215519 | 21 | 236 | 8.0 | 12.9 | 0.00 | 0.00 | 0.00 | 59 | 1018.5 |
| 20260506215015 | 22 | 221 | 6.4 | 9.7 | 0.00 | 0.00 | 0.00 | 57 | 1018.6 |
| 20260506214512 | 22 | 327 | 8.0 | 11.3 | 0.00 | 0.00 | 0.00 | 56 | 1018.6 |
| 20260506214009 | 22 | 334 | 8.0 | 12.9 | 0.00 | 0.00 | 0.00 | 58 | 1018.7 |
| 20260506213507 | 22 | 233 | 4.8 | 11.3 | 0.00 | 0.00 | 0.00 | 59 | 1018.6 |
| 20260506213004 | 23 | 220 | 4.8 | 11.3 | 0.00 | 0.00 | 0.00 | 58 | 1018.7 |
| 20260506212500 | 23 | 219 | 3.2 | 6.4 | 0.00 | 0.00 | 0.00 | 54 | 1019.0 |
| 20260506211955 | 22 | 240 | 6.4 | 9.7 | 0.00 | 0.00 | 0.00 | 61 | 1018.8 |
| 20260506211451 | 22 | 176 | 6.4 | 9.7 | 0.00 | 0.00 | 0.00 | 62 | 1019.0 |
| 20260506210948 | 22 | 351 | 0.0 | 9.7 | 0.00 | 0.00 | 0.00 | 64 | 1019.0 |
| 20260506210445 | 21 | 229 | 3.2 | 9.7 | 0.00 | 0.00 | 0.00 | 68 | 1019.0 |
| 20260506205942 | 21 | 291 | 11.3 | 12.9 | 0.00 | 0.00 | 0.00 | 68 | 1019.0 |
| 20260506205438 | 21 | 196 | 8.0 | 14.5 | 0.00 | 0.00 | 0.00 | 67 | 1019.0 |
| 20260506204934 | 21 | 220 | 3.2 | 17.7 | 0.00 | 0.00 | 0.00 | 70 | 1019.0 |
| 20260506204432 | 21 | 218 | 9.7 | 12.9 | 0.00 | 0.00 | 0.00 | 67 | 1019.2 |
| 20260506203929 | 21 | 249 | 6.4 | 12.9 | 0.00 | 0.00 | 0.00 | 69 | 1019.2 |
| 20260506203426 | 20 | 236 | 9.7 | 14.5 | 0.00 | 0.00 | 0.00 | 71 | 1019.1 |
| 20260506202923 | 20 | 176 | 4.8 | 14.5 | 0.00 | 0.00 | 0.00 | 68 | 1019.3 |
| 20260506202421 | 21 | 161 | 4.8 | 12.9 | 0.00 | 0.00 | 0.00 | 66 | 1019.5 |
| 20260506201917 | 21 | 256 | 11.3 | 16.1 | 0.00 | 0.00 | 0.00 | 68 | 1019.3 |
| 20260506201415 | 21 | 228 | 8.0 | 11.3 | 0.00 | 0.00 | 0.00 | 68 | 1019.5 |
| 20260506200911 | 20 | 355 | 1.6 | 11.3 | 0.00 | 0.00 | 0.00 | 70 | 1019.5 |
| 20260506200407 | 20 | 254 | 6.4 | 12.9 | 0.00 | 0.00 | 0.00 | 72 | 1019.5 |
| 20260506195904 | 21 | 204 | 8.0 | 9.7 | 0.00 | 0.00 | 0.00 | 68 | 1019.7 |
| 20260506195401 | 20 | 241 | 6.4 | 11.3 | 0.00 | 0.00 | 0.00 | 72 | 1019.5 |
| 20260506194857 | 20 | 295 | 3.2 | 12.9 | 0.00 | 0.00 | 0.00 | 70 | 1019.6 |
| 20260506194354 | 20 | 206 | 4.8 | 12.9 | 0.00 | 0.00 | 0.00 | 71 | 1019.8 |
| 20260506193852 | 21 | 165 | 6.4 | 11.3 | 0.00 | 0.00 | 0.00 | 69 | 1019.7 |
| 20260506193349 | 20 | 227 | 4.8 | 12.9 | 0.00 | 0.00 | 0.00 | 71 | 1019.8 |
| 20260506192845 | 20 | 191 | 6.4 | 9.7 | 0.00 | 0.00 | 0.00 | 71 | 1019.9 |
| 20260506192342 | 20 | 226 | 4.8 | 11.3 | 0.00 | 0.00 | 0.00 | 71 | 1019.9 |
| 20260506191838 | 20 | 254 | 6.4 | 12.9 | 0.00 | 0.00 | 0.00 | 71 | 1020.0 |
| 20260506191335 | 20 | 274 | 9.7 | 12.9 | 0.00 | 0.00 | 0.00 | 70 | 1020.2 |
| 20260506190832 | 20 | 258 | 3.2 | 11.3 | 0.00 | 0.00 | 0.00 | 73 | 1020.2 |
| 20260506190328 | 19 | 200 | 4.8 | 9.7 | 0.00 | 0.00 | 0.00 | 73 | 1020.3 |
| 20260506185825 | 19 | 223 | 6.4 | 12.9 | 0.00 | 0.00 | 0.00 | 72 | 1020.2 |
| 20260506185322 | 20 | 234 | 8.0 | 12.9 | 0.00 | 0.00 | 0.00 | 73 | 1020.4 |
| 20260506184819 | 20 | 245 | 3.2 | 11.3 | 0.00 | 0.00 | 0.00 | 72 | 1020.3 |
| 20260506184317 | 20 | 27 | 3.2 | 9.7 | 0.00 | 0.00 | 0.00 | 74 | 1020.3 |
| 20260506183814 | 19 | 209 | 9.7 | 12.9 | 0.00 | 0.00 | 0.00 | 75 | 1020.2 |
| 20260506183309 | 20 | 204 | 6.4 | 6.4 | 0.00 | 0.00 | 0.00 | 73 | 1020.2 |
| 20260506182806 | 18 | 224 | 6.4 | 11.3 | 0.00 | 0.00 | 0.00 | 74 | 1020.3 |
| 20260506182306 | 18 | 159 | 3.2 | 9.7 | 0.00 | 0.00 | 0.00 | 75 | 1020.4 |
| 20260506181801 | 18 | 200 | 8.0 | 11.3 | 0.00 | 0.00 | 0.00 | 75 | 1020.5 |
| 20260506181259 | 18 | 241 | 4.8 | 12.9 | 0.00 | 0.00 | 0.00 | 75 | 1020.5 |
| 20260506180756 | 19 | 227 | 6.4 | 11.3 | 0.00 | 0.00 | 0.00 | 74 | 1020.6 |
| 20260506180251 | 18 | 195 | 3.2 | 11.3 | 0.00 | 0.00 | 0.00 | 75 | 1020.5 |
| 20260506175748 | 19 | 234 | 4.8 | 11.3 | 0.00 | 0.00 | 0.00 | 74 | 1020.6 |
| 20260506175245 | 18 | 262 | 4.8 | 9.7 | 0.00 | 0.00 | 0.00 | 77 | 1020.3 |
| 20260506174742 | 18 | 273 | 4.8 | 11.3 | 0.00 | 0.00 | 0.00 | 76 | 1020.5 |
| 20260506174239 | 18 | 232 | 9.7 | 14.5 | 0.00 | 0.00 | 0.00 | 77 | 1020.4 |
| 20260506173737 | 17 | 244 | 6.4 | 9.7 | 0.00 | 0.00 | 0.00 | 77 | 1020.4 |
| 20260506173234 | 17 | 165 | 1.6 | 6.4 | 0.00 | 0.00 | 0.00 | 78 | 1020.5 |
| 20260506172731 | 17 | 320 | 4.8 | 4.8 | 0.00 | 0.00 | 0.00 | 79 | 1020.3 |
| 20260506172227 | 17 | 212 | 4.8 | 9.7 | 0.00 | 0.00 | 0.00 | 78 | 1020.4 |
| 20260506171725 | 17 | 231 | 3.2 | 6.4 | 0.00 | 0.00 | 0.00 | 77 | 1020.3 |
| 20260506171222 | 17 | 285 | 4.8 | 4.8 | 0.00 | 0.00 | 0.00 | 78 | 1020.4 |
| 20260506170719 | 18 | 177 | 1.6 | 3.2 | 0.00 | 0.00 | 0.00 | 76 | 1020.4 |
| 20260506170216 | 18 | 186 | 0.0 | 9.7 | 0.00 | 0.00 | 0.00 | 77 | 1020.4 |
| 20260506165714 | 18 | 182 | 1.6 | 4.8 | 0.00 | 0.00 | 0.00 | 78 | 1020.5 |
| 20260506165211 | 17 | 209 | 1.6 | 6.4 | 0.00 | 0.00 | 0.00 | 80 | 1020.6 |
| 20260506164708 | 17 | 248 | 4.8 | 4.8 | 0.00 | 0.00 | 0.00 | 82 | 1020.5 |
| 20260506164205 | 16 | 128 | 0.0 | 3.2 | 0.00 | 0.00 | 0.00 | 81 | 1020.6 |
| 20260506163701 | 16 | 227 | 1.6 | 3.2 | 0.00 | 0.00 | 0.00 | 82 | 1020.7 |
| 20260506163157 | 17 | 215 | 1.6 | 3.2 | 0.00 | 0.00 | 0.00 | 79 | 1020.6 |
| 20260506162653 | 17 | 219 | 6.4 | 6.4 | 0.00 | 0.00 | 0.00 | 75 | 1020.5 |
| 20260506162150 | 18 | 280 | 0.0 | 4.8 | 0.00 | 0.00 | 0.00 | 76 | 1020.7 |
| 20260506161648 | 16 | 238 | 1.6 | 1.6 | 0.00 | 0.00 | 0.00 | 80 | 1020.7 |
| 20260506161144 | 16 | 241 | 3.2 | 4.8 | 0.00 | 0.00 | 0.00 | 81 | 1020.6 |
| 20260506160642 | 16 | 247 | 6.4 | 6.4 | 0.00 | 0.00 | 0.00 | 82 | 1020.7 |
| 20260506160139 | 16 | 200 | 0.0 | 3.2 | 0.00 | 0.00 | 0.00 | 84 | 1020.5 |
| 20260506155637 | 15 | 232 | 0.0 | 0.0 | 0.00 | 0.00 | 0.00 | 85 | 1020.5 |
| 20260506155134 | 15 | 205 | 0.0 | 1.6 | 0.00 | 0.00 | 0.00 | 87 | 1020.4 |